Hourly Data Report for April 22, 2018

KUGAARUK CLIMATE
NUNAVUT
Current Station Operator: ECCC - MSC

68°32'15.060" N
89°47'47.020" W
15.80 m
2303094
71407
NBB

Download Data

Hourly Data (April 2018)
Hourly Data Report for April 22, 2018
TIME
LST
Temp Definition
°C
Dew Point Definition
°C
Rel Hum Definition
%
Precip. Amount Definition
mm

Wind Dir Definition
10's deg

Wind Spd Definition
km/h
Visibility Definition
km
Stn Press Definition
kPa
Hmdx Definition


Wind Chill Definition


Weather Definition


00:00 -23.5 -26.5 76 0.0 24 21   101.75   -35 LegendNANA
01:00 -23.7 -26.8 76 0.0 27 35   101.77   -38 LegendNANA
02:00 -24.4 -27.4 76 0.0 25 27   101.84   -38 LegendNANA
03:00 -24.4 -27.4 76 0.0 26 29   101.88   -38 LegendNANA
04:00 -24.9 -28.2 74 0.0 24 31   101.89   -39 LegendNANA
05:00 -24.5 -27.7 74 0.0 24 33   101.90   -39 LegendNANA
06:00 -24.0 -27.4 74 0.0 26 31   101.89   -38 LegendNANA
07:00 -23.6 -27.2 72 0.0 25 32   101.93   -38 LegendNANA
08:00 -23.2 -26.8 72 0.0 25 25   101.92   -36 LegendNANA
09:00 -21.8 -25.5 72 0.0 28 28   101.90   -35 LegendNANA
10:00 -22.0 -25.6 72 0.0 28 39   101.89   -37 LegendNANA
11:00 -21.6 -25.4 71 0.0 28 37   101.94   -36 LegendNANA
12:00 -20.7 -24.9 69 0.0 28 30   101.96   -33 LegendNANA
13:00 -20.8 -24.7 71 0.0 26 30   101.97   -34 LegendNANA
14:00 -20.3 -24.3 70 0.0 26 33   101.96   -33 LegendNANA
15:00 -20.3 -24.0 72 0.0 26 36   101.94   -34 LegendNANA
16:00 -20.5 -24.2 72 0.0 25 28   101.99   -33 LegendNANA
17:00 -20.4 -24.2 72 0.0 26 34   101.96   -34 LegendNANA
18:00 -20.8 -24.4 73 0.0 27 39   101.92   -35 LegendNANA
19:00 -21.6 -25.1 74 0.0 24 34   101.93   -35 LegendNANA
20:00 -22.1 -25.3 75 0.0 25 28   101.96   -35 LegendNANA
21:00 -22.8 -25.6 78 0.0 24 29   101.90   -36 LegendNANA
22:00 -23.1 -26.2 76 0.0 24 29   101.90   -36 LegendNANA
23:00 -23.6 -26.6 76 0.0 23 23   101.91   -36 LegendNANA

Notes on Data Quality.

Legend

  • E = Estimated
  • M = Missing
  • NA = Not Available*
  • [empty] = Indicates an unobserved value
Date modified: